Theta_e
320 320 320 320 323 323 322 322 321 322 324 323 320 318 321 324 318 315 323 327 323 325 329 329 330 330 330 329 329 328 330 333 333 335 339 336 332 338 347 355 359 359 359 360 359 358 358 356 355 355 354 355 355 355 355 355 354 354 355 356 357 358 359 360 361 361 360 361 361 361 360 360 360 360 360 360 359 359 360 361 361 361 360 361 363 363 363
319 319 319 320 321 321 322 323 323 324 324 323 322 323 324 325 323 324 329 329 328 330 330 329 329 329 328 328 329 329 329 330 331 331 332 331 330 329 336 351 361 361 361 362 360 360 359 357 355 354 354 355 355 354 355 355 354 354 354 356 358 358 359 360 361 361 361 361 361 362 362 361 362 361 360 360 360 360 361 361 362 361 361 361 363 363 363
319 318 318 319 320 320 319 320 322 323 323 323 323 324 325 325 325 327 328 326 328 331 331 330 330 330 329 329 329 329 329 330 330 330 329 329 331 330 330 344 356 360 361 362 362 361 360 359 358 355 355 356 355 355 354 355 355 354 354 356 358 358 359 361 362 362 363 363 363 363 363 362 363 363 362 362 362 361 361 362 363 362 362 362 362 363 363
317 317 318 318 318 318 317 317 320 321 320 321 321 323 325 324 323 325 323 321 325 329 329 328 329 329 329 328 328 328 330 329 329 330 330 330 333 332 332 343 354 356 356 359 362 359 357 358 358 356 356 356 355 354 354 354 354 354 354 355 358 359 360 361 362 363 364 364 364 364 364 364 363 364 364 363 363 363 363 363 363 363 363 362 363 362 363
317 316 317 316 316 317 316 318 321 322 322 323 323 324 326 326 325 324 321 322 327 330 330 329 330 330 328 329 329 328 331 332 332 332 331 331 333 331 332 343 354 353 349 351 355 356 354 354 355 355 356 356 355 354 354 354 355 355 353 355 358 360 362 362 364 365 366 365 365 365 366 365 364 365 365 364 364 364 364 364 364 364 363 363 362 362 362
317 316 316 316 317 317 319 322 324 323 323 323 322 322 324 326 326 326 325 327 330 330 330 330 331 331 330 331 331 330 332 334 336 335 333 333 335 335 335 338 343 348 351 352 351 353 354 351 351 352 353 355 355 354 354 354 354 355 355 355 358 362 363 363 365 367 367 366 366 366 366 366 365 366 365 365 365 364 364 364 364 363 363 362 362 362 361
317 316 317 318 318 319 321 326 328 325 325 326 327 329 331 329 328 329 328 329 330 330 331 331 331 331 331 331 331 331 333 334 336 336 335 335 335 337 340 343 346 354 361 359 355 354 353 350 349 350 352 353 353 354 354 354 354 355 356 356 358 362 363 364 366 367 367 367 366 366 367 366 366 366 365 365 365 364 364 364 363 362 362 361 361 361 360
316 316 317 319 320 320 321 325 328 328 330 332 329 328 329 331 334 336 335 335 335 335 335 336 337 336 335 333 333 333 334 334 335 335 334 333 335 340 348 353 359 364 365 362 359 359 357 352 350 349 350 351 352 353 353 353 354 356 358 357 358 361 364 365 365 366 367 366 366 366 366 366 366 366 365 365 365 364 364 364 363 362 361 361 361 360 360
317 316 316 317 318 318 319 324 328 330 331 333 331 326 328 336 340 341 343 343 342 341 342 344 346 346 343 339 334 331 329 330 333 335 336 338 344 350 354 357 361 364 364 364 364 363 361 357 351 349 348 349 350 351 352 354 355 356 358 359 360 361 364 365 365 366 367 366 366 365 365 366 366 366 366 366 365 365 364 364 363 362 362 361 360 360 360
316 316 316 317 317 317 319 323 328 331 331 333 335 329 330 341 343 340 344 347 346 347 347 348 350 350 344 338 334 336 340 338 337 342 345 347 349 352 355 357 361 362 364 365 364 364 364 359 353 349 349 348 350 351 352 354 356 358 359 360 362 363 365 364 364 365 365 365 365 365 365 367 366 366 366 366 365 365 365 364 364 363 362 362 361 360 360
314 316 316 317 317 318 322 326 329 329 327 331 334 326 326 340 345 340 343 346 345 348 349 348 350 350 342 334 337 347 352 350 350 352 352 352 352 354 358 359 360 362 364 364 363 361 360 358 354 350 349 349 350 352 352 353 356 358 360 359 361 362 363 363 363 364 364 364 365 365 365 366 366 366 366 365 365 365 365 364 364 363 362 362 361 361 360
315 316 316 316 315 318 325 328 328 329 328 331 332 325 326 340 344 340 343 345 344 346 347 347 350 350 346 343 346 348 348 348 349 352 353 354 354 355 358 358 359 361 363 364 363 360 359 360 357 353 351 350 351 353 353 353 354 357 359 359 359 360 361 361 362 363 364 364 365 365 366 366 365 365 365 365 364 365 365 364 364 363 362 361 361 361 360
313 314 315 316 315 318 323 323 324 328 326 324 324 325 332 341 341 339 342 343 343 345 345 345 348 349 348 348 347 346 345 347 350 350 350 352 354 354 357 358 359 361 362 363 362 361 362 362 359 355 354 352 353 356 356 356 355 356 358 360 359 360 361 361 362 363 364 364 365 365 365 366 365 364 364 364 364 365 364 364 364 364 363 362 361 361 361
313 314 314 314 315 317 321 320 319 322 320 319 325 333 339 341 340 341 342 342 343 344 343 343 344 343 342 343 343 343 344 346 350 349 348 351 353 354 356 357 358 360 361 361 360 360 360 360 357 356 357 356 357 358 358 358 356 354 356 359 360 362 363 362 361 364 365 365 366 366 365 366 365 364 363 364 365 364 364 364 364 365 364 363 361 360 360
314 314 314 314 315 319 323 322 322 323 323 327 335 339 338 338 340 342 342 343 343 343 341 341 341 340 341 342 342 343 344 345 347 348 349 350 351 352 354 355 356 358 359 358 359 359 359 360 359 356 356 358 360 360 361 363 360 357 357 360 362 364 365 363 362 364 366 366 366 366 366 365 365 365 365 364 364 365 365 365 365 365 365 364 362 361 360
315 315 315 316 318 320 322 322 324 327 329 333 337 338 337 337 339 340 342 343 341 340 340 341 340 340 342 342 342 343 344 344 345 347 347 349 349 351 352 353 353 355 356 357 357 357 358 360 363 361 360 362 365 365 367 367 363 361 361 363 364 365 365 364 363 363 365 366 366 366 366 366 365 366 365 365 365 366 366 365 365 365 364 363 363 362 362
317 316 316 317 319 319 319 320 323 326 327 328 331 334 337 338 337 338 341 341 339 339 339 340 341 342 342 342 342 343 344 344 345 347 348 348 349 350 352 352 353 354 355 356 356 356 356 357 359 362 364 365 367 366 365 364 363 362 361 362 364 364 363 364 364 363 364 366 367 366 365 366 366 366 366 366 366 366 366 365 364 364 363 363 363 362 363
315 316 316 317 317 318 318 318 321 322 322 322 325 330 334 337 337 338 339 339 339 339 338 339 342 343 342 343 344 344 345 346 346 347 348 349 350 351 351 352 353 354 355 355 355 355 355 355 355 357 358 360 361 361 361 362 364 363 361 361 362 363 362 363 363 363 364 365 367 367 366 366 366 367 366 367 367 366 365 364 364 364 363 363 362 363 364
314 315 316 316 317 318 318 318 319 320 319 320 324 329 333 335 336 336 338 339 340 339 339 339 341 342 343 344 345 345 346 347 347 347 348 348 349 351 351 352 352 353 354 355 354 354 354 354 355 355 356 357 357 358 360 361 363 364 363 362 363 364 364 365 364 364 364 364 365 367 366 366 366 366 366 366 366 366 365 364 364 364 363 363 363 363 363
313 314 314 314 315 316 316 316 316 316 317 319 322 327 330 332 334 335 336 339 340 339 339 338 339 341 342 341 343 345 344 344 346 347 348 348 349 351 351 351 351 352 352 352 353 352 352 353 353 354 355 356 357 358 359 361 361 363 363 363 363 364 364 364 363 363 363 363 364 365 366 366 365 364 364 363 363 364 364 364 364 364 363 364 363 363 363
312 313 313 314 315 315 315 316 317 317 319 321 323 325 327 329 332 335 335 337 338 339 338 338 338 339 339 339 340 343 343 342 344 346 347 347 349 350 350 350 349 349 349 350 350 351 350 351 352 352 352 353 354 356 357 358 360 361 361 363 364 363 362 361 361 360 361 362 361 361 362 363 364 364 364 363 362 363 363 363 363 363 363 363 363 363 363
311 312 313 315 315 316 316 317 318 318 318 319 320 323 325 327 330 334 336 336 338 338 338 337 338 338 338 338 339 341 341 341 343 345 346 347 349 350 349 348 348 348 348 348 349 349 349 349 349 350 350 350 351 352 353 355 357 358 360 361 362 362 362 363 362 361 361 362 361 360 361 361 361 363 363 362 361 361 362 363 363 363 362 363 363 363 363
312 313 314 314 315 315 315 316 316 316 317 317 318 321 324 325 326 331 334 336 338 339 337 337 338 338 338 339 340 340 341 341 341 343 345 345 347 348 348 348 348 348 348 348 348 348 347 347 347 348 348 349 349 350 351 353 354 356 357 359 359 359 358 358 358 361 362 362 362 362 362 362 362 361 361 361 361 360 360 361 362 362 362 362 362 362 363
312 312 312 313 313 314 314 314 315 315 316 317 318 319 321 322 324 328 332 334 336 339 338 337 338 340 340 340 341 341 340 340 341 343 343 343 345 346 347 348 349 349 349 350 349 348 348 348 348 348 348 349 350 350 350 351 352 354 356 356 354 354 353 352 353 355 357 357 357 358 358 359 359 359 359 360 360 359 358 357 357 358 359 359 360 360 360
312 312 312 313 313 313 313 313 314 314 315 317 317 318 320 322 323 327 331 333 334 336 338 337 338 340 341 341 341 341 340 340 342 343 342 342 342 343 345 346 347 348 348 349 349 349 348 348 348 348 348 348 349 349 349 350 351 352 353 352 350 350 351 352 351 352 353 353 354 354 355 355 354 354 355 355 356 356 355 353 352 352 352 352 353 354 355
312 312 312 312 311 312 312 313 314 315 315 316 317 318 320 322 324 327 330 332 332 333 335 336 337 339 341 341 341 341 340 340 342 342 342 342 342 342 343 344 345 346 347 347 347 347 346 346 346 346 346 347 347 347 347 348 349 350 351 350 348 347 348 350 351 351 351 351 351 351 351 350 350 350 351 351 350 350 350 350 349 349 348 348 348 349 349
312 312 312 312 312 312 313 313 314 315 315 316 317 319 320 323 326 328 330 331 332 333 334 336 338 339 340 340 340 340 340 340 341 341 341 342 342 342 342 343 343 344 345 345 344 344 345 345 344 344 345 345 346 347 347 347 347 348 350 350 349 347 346 347 349 349 348 348 347 347 347 347 347 347 347 346 346 346 347 347 347 347 347 347 346 346 344
313 313 312 312 313 312 313 314 314 315 316 317 318 320 322 325 328 328 329 329 330 331 334 336 337 338 339 339 339 339 339 339 339 339 340 340 341 341 342 342 343 343 343 342 343 343 343 343 343 343 344 344 344 345 346 346 346 346 347 348 349 348 347 347 348 347 346 345 344 343 342 343 344 344 345 345 344 344 345 345 345 345 344 344 342 341 338
314 314 312 311 312 312 312 313 314 315 315 316 318 320 324 327 329 328 328 328 329 330 331 334 336 337 337 338 338 337 337 336 337 337 338 339 340 340 341 341 341 341 341 341 341 342 342 341 341 341 341 342 342 343 344 345 345 345 345 345 345 346 345 345 345 345 344 343 342 340 340 341 343 344 344 343 343 343 343 344 343 342 342 341 339 336 333
316 315 313 311 311 312 312 313 315 316 316 317 319 322 325 328 329 328 327 328 329 330 331 333 334 335 336 336 336 336 336 336 336 336 337 337 338 338 339 340 339 339 339 339 339 340 340 340 340 339 340 340 340 341 342 343 344 344 344 344 343 341 339 341 342 343 343 342 342 341 341 342 342 342 342 342 342 342 343 344 342 340 338 338 336 333 331
316 315 314 313 313 313 314 315 316 317 318 320 322 325 327 329 328 328 328 330 332 332 332 332 332 333 333 333 333 334 334 334 335 335 335 335 336 336 336 337 337 337 337 337 337 338 338 338 338 338 338 338 338 339 340 341 342 342 342 343 342 340 338 339 341 341 341 342 342 341 341 341 341 341 340 340 340 341 342 343 340 337 335 335 334 331 329
317 316 316 316 315 315 315 316 317 318 321 323 325 327 329 329 329 329 330 332 333 332 332 332 332 331 332 332 332 332 332 332 333 334 334 334 334 335 335 335 336 336 336 335 336 336 337 337 337 337 337 337 337 338 339 339 340 342 342 342 343 341 339 339 341 341 341 341 342 341 341 341 341 340 340 339 339 340 341 341 338 335 333 332 331 329 327
318 319 319 318 318 317 317 317 318 320 323 325 326 328 329 329 328 327 329 332 332 331 331 331 332 332 332 332 332 332 332 332 332 332 333 333 334 334 334 334 334 334 334 334 335 335 335 336 336 336 336 336 336 336 337 338 339 340 340 341 342 341 340 340 340 341 341 341 341 341 341 341 341 341 340 340 340 340 340 340 337 334 333 331 329 328 327
320 320 320 321 321 320 320 320 322 324 326 327 327 327 328 327 326 326 328 331 332 331 330 331 332 332 331 330 330 330 330 330 330 330 332 333 333 333 333 333 333 333 333 333 333 334 334 334 335 335 335 335 335 335 336 336 337 338 339 340 340 340 340 340 340 340 341 341 341 341 341 341 341 340 340 341 341 340 340 339 338 336 334 331 329 329 328
323 321 321 322 323 323 323 324 326 327 328 328 328 327 327 327 327 329 330 331 331 332 332 331 331 329 328 327 328 328 328 328 329 330 330 331 331 331 331 332 331 331 331 331 331 332 332 332 333 333 333 333 333 334 335 336 336 336 337 337 338 338 338 338 339 339 340 340 340 340 340 340 339 339 339 340 340 340 340 339 338 337 335 333 331 331 330
325 325 324 324 323 323 325 326 326 327 329 329 328 326 327 329 330 332 332 332 331 332 331 330 327 326 326 326 327 327 327 327 328 328 328 328 328 328 329 329 330 330 330 330 329 329 329 330 330 331 331 331 332 333 333 334 335 335 335 335 336 336 336 336 337 337 337 338 338 339 338 339 339 338 338 339 339 339 339 339 338 338 337 335 333 333 334
326 326 327 326 324 323 325 326 327 328 329 329 327 327 329 332 332 332 332 333 332 330 328 327 326 325 325 326 326 326 327 327 327 326 326 326 326 327 327 327 327 328 328 328 327 328 328 328 328 329 330 330 331 331 331 332 333 333 333 333 334 334 334 334 334 334 334 335 335 336 336 337 338 338 338 338 338 337 337 338 337 337 336 334 334 334 335
324 326 327 327 326 326 326 327 327 328 328 328 328 330 331 329 327 327 328 329 329 327 326 326 326 325 325 325 326 325 325 325 325 325 325 325 325 325 325 326 326 325 326 326 326 327 327 326 327 328 329 329 329 329 329 330 332 332 332 332 332 332 332 332 332 332 332 332 333 333 334 334 335 336 336 336 336 336 336 335 335 334 333 330 330 331 334
320 321 323 323 324 324 324 324 324 325 326 327 327 328 327 325 324 325 326 326 326 325 325 325 326 326 325 325 325 325 324 324 323 323 323 323 324 324 324 324 324 325 325 325 324 325 325 325 325 326 327 327 328 328 327 329 330 331 331 331 331 331 331 332 331 331 331 331 331 331 332 331 332 333 333 333 334 334 334 333 333 333 332 330 328 329 331
317 317 318 318 319 319 319 319 319 320 321 322 323 324 324 324 324 325 325 324 324 324 324 324 324 325 325 324 324 323 323 323 322 322 321 322 322 322 322 322 323 324 324 323 323 323 324 324 324 325 325 325 325 325 325 326 328 328 329 329 329 330 330 330 330 330 330 330 329 330 330 330 330 329 329 330 330 331 331 331 330 330 331 331 330 329 329
316 316 316 316 316 316 316 316 316 316 316 317 319 320 321 321 321 321 321 321 321 322 322 322 322 322 322 322 321 321 321 321 321 321 321 321 321 321 321 321 321 322 322 322 321 321 321 322 323 323 323 323 323 323 323 323 324 325 325 326 326 327 327 327 328 328 328 328 328 328 328 328 327 327 327 327 327 327 327 327 327 327 328 329 329 328 328
315 315 315 314 314 314 314 314 314 314 313 314 314 315 315 316 316 317 317 317 317 318 319 320 320 321 321 320 319 319 319 319 318 319 319 319 320 319 319 319 320 319 319 319 319 319 320 320 320 320 321 321 321 321 321 321 321 321 322 322 322 322 322 323 323 324 325 326 326 326 325 324 324 323 323 323 323 323 323 324 324 324 324 326 325 325 325
314 314 314 314 314 313 313 313 313 312 312 312 312 312 312 313 313 314 314 314 314 315 315 316 316 317 318 319 319 318 317 317 316 316 316 316 317 317 318 318 318 317 316 316 317 317 318 318 318 317 318 319 319 319 319 319 319 320 320 319 319 319 318 318 318 319 320 321 322 321 321 321 321 321 319 318 317 317 319 321 321 321 322 322 322 322 322
314 314 313 313 313 312 312 312 312 311 311 311 311 311 311 311 311 312 313 313 313 313 313 313 314 314 315 316 317 317 316 315 314 313 313 314 315 316 316 316 316 316 315 314 314 315 316 316 315 315 315 315 316 317 317 317 318 318 318 318 318 318 317 317 316 316 316 316 317 317 316 317 317 317 316 315 314 314 314 315 316 318 318 319 319 319 320
314 314 313 313 312 312 312 312 311 311 310 310 310 310 310 311 311 311 312 312 312 311 311 312 312 313 313 313 313 313 313 313 313 312 313 313 313 314 314 314 314 314 313 312 312 313 314 313 312 312 312 313 313 314 314 314 315 316 316 317 317 317 316 316 316 315 315 314 314 314 314 314 314 314 313 313 313 312 311 310 310 311 312 313 313 314 316
312 312 312 312 312 312 312 311 311 310 310 310 309 309 309 309 309 310 310 311 310 310 310 310 310 311 311 311 311 311 310 310 311 311 311 311 312 313 313 313 312 312 312 311 311 312 312 311 310 310 311 311 311 312 312 312 312 313 313 314 314 315 315 315 315 314 314 314 313 313 313 312 312 312 311 311 310 310 309 308 308 308 308 309 309 310 311
311 311 311 311 311 311 311 311 310 310 310 310 310 309 308 308 308 308 308 308 308 308 309 309 309 309 310 310 310 310 310 310 310 310 310 310 310 310 311 312 311 311 310 310 310 310 309 309 309 309 310 310 310 310 310 311 311 310 310 311 311 312 312 313 313 312 313 312 312 312 312 312 311 311 310 310 309 309 308 307 307 306 306 306 306 307 308
310 310 310 310 310 310 310 310 310 310 310 310 309 309 308 308 308 308 307 307 307 307 307 307 308 308 308 309 309 309 309 309 309 309 309 309 308 308 309 309 310 309 309 309 309 308 307 307 308 309 309 309 309 309 309 309 309 309 309 309 309 309 309 310 310 310 310 310 310 310 310 310 310 310 310 309 309 309 308 307 306 305 304 304 304 304 304
310 309 309 309 309 309 309 309 309 309 309 309 309 309 309 309 308 308 307 307 307 306 306 306 306 307 307 307 307 308 308 308 308 308 307 307 307 307 307 307 307 307 307 308 308 307 307 307 307 308 308 308 308 308 308 308 308 308 308 308 308 307 307 307 307 308 308 308 308 308 308 308 308 308 308 308 308 308 307 307 306 305 304 303 303 302 302
309 309 309 308 308 308 308 308 308 308 308 308 308 308 308 308 308 308 307 307 307 306 306 306 305 305 305 306 306 306 306 306 306 306 306 306 305 305 305 305 305 305 306 306 306 306 306 306 307 307 307 307 307 307 307 307 307 307 306 306 306 306 306 306 306 306 306 306 306 306 306 306 306 306 306 306 306 306 306 306 306 305 305 304 303 302 301
308 308 308 308 308 307 307 307 307 307 308 308 308 308 307 307 307 307 307 307 307 306 306 306 305 305 304 304 304 304 304 305 305 305 304 304 304 303 303 303 303 303 304 304 304 305 305 305 305 306 306 306 306 306 306 306 306 305 305 305 305 305 305 305 305 305 305 305 305 305 305 305 304 304 304 304 304 304 304 304 304 304 304 304 303 303 302
306 307 307 307 307 307 307 306 306 306 306 306 307 307 307 306 306 306 306 306 306 305 305 305 304 304 304 303 303 303 303 303 303 303 303 303 302 302 302 302 302 302 302 302 303 303 303 303 304 304 304 305 304 304 304 304 304 304 304 304 304 304 304 304 304 304 304 304 304 304 304 304 304 304 303 303 303 302 302 302 302 302 302 302 302 302 302
Wind_Speed
1 2 3 3 2 1 3 8 12 13 15 16 16 15 13 11 9 7 6 10 13 12 11 10 7 6 6 7 8 9 8 9 8 7 7 9 8 4 5 9 10 11 11 12 12 13 14 17 21 23 24 25 26 27 27 28 30 30 30 31 33 33 33 33 34 34 33 32 32 33 33 33 34 34 34 33 33 32 31 31 30 31 31 30 29 28 28
2 2 1 1 1 1 2 5 7 8 11 13 13 14 15 13 11 9 8 8 9 9 10 10 10 9 9 10 10 11 13 14 14 13 14 14 12 10 6 4 9 10 10 11 12 13 13 15 19 22 23 24 26 27 27 28 29 30 30 31 32 32 33 33 31 30 31 31 31 32 33 34 34 34 33 33 32 32 32 31 29 29 29 29 29 29 29
4 4 3 2 3 4 5 8 8 9 10 11 12 12 12 12 12 14 14 13 10 7 7 9 9 8 9 9 10 11 12 14 16 16 16 15 13 13 11 5 6 7 8 10 11 12 14 15 19 21 23 24 25 27 28 29 30 30 30 30 30 32 32 30 28 29 30 31 31 32 33 33 32 32 32 31 31 31 31 30 29 29 29 30 30 28 28
5 5 5 5 4 6 10 12 12 12 12 12 12 11 11 12 13 14 16 14 10 8 9 11 11 11 13 14 13 13 12 14 15 16 16 16 14 14 13 8 6 6 7 9 11 13 14 16 19 22 23 23 24 26 28 29 29 29 30 30 30 31 30 28 28 29 29 30 30 31 32 32 31 31 30 30 29 30 30 31 29 28 28 29 29 28 27
4 5 5 4 3 7 11 12 14 15 14 13 12 12 13 14 13 12 13 11 8 8 9 10 10 11 13 13 12 12 12 13 15 16 16 16 16 15 14 9 6 6 6 7 9 11 12 15 20 22 23 24 25 27 27 26 26 28 30 31 29 28 28 27 28 28 28 29 30 30 30 30 29 29 30 31 31 30 31 30 29 29 29 29 29 29 28
4 4 2 3 6 9 6 3 7 14 15 15 16 15 14 14 13 11 11 9 8 8 8 8 8 9 10 10 10 10 10 10 12 14 15 15 15 15 13 11 9 7 5 5 7 9 11 15 18 19 22 25 25 25 25 25 27 29 30 31 28 27 28 29 29 29 29 29 30 29 29 29 29 29 31 32 32 31 30 29 30 31 30 29 31 31 30
5 2 2 6 8 5 2 5 3 5 9 11 12 11 10 10 11 12 12 11 10 9 9 9 9 10 11 12 12 12 12 11 11 13 14 14 14 14 12 11 10 7 5 5 6 8 10 12 14 16 19 22 22 22 24 27 29 29 29 29 28 27 29 30 30 30 30 31 30 29 29 28 29 30 31 32 32 31 29 29 30 32 30 30 33 34 31
5 4 6 8 3 2 3 3 4 5 6 6 7 9 11 10 7 7 9 9 9 9 10 9 9 10 11 12 12 12 13 14 14 14 14 14 13 12 9 8 7 6 6 7 8 8 9 10 12 14 16 18 20 21 24 26 27 28 28 28 28 28 28 30 31 31 31 31 30 29 29 28 30 31 32 32 31 30 29 27 28 30 30 31 33 33 32
6 6 7 6 3 3 5 5 4 4 5 5 3 7 8 7 4 2 4 6 7 9 9 7 7 9 9 9 11 13 16 17 17 15 13 11 10 8 7 7 8 8 9 10 10 10 10 10 12 12 13 16 18 20 22 24 25 26 26 27 28 28 28 30 30 29 29 29 28 28 27 28 30 31 31 30 29 27 27 26 27 29 29 30 31 31 33
6 6 7 7 7 7 6 6 7 5 4 4 2 3 4 7 7 2 3 4 6 8 7 6 6 7 7 8 8 8 11 12 11 9 8 6 6 6 6 7 8 9 9 10 11 11 11 11 11 11 12 15 17 19 20 22 23 24 26 28 29 28 27 26 26 25 26 26 26 26 27 29 30 29 28 27 26 26 26 26 27 27 27 28 28 29 32
6 7 8 7 7 3 2 6 8 6 3 4 3 4 5 6 7 2 3 4 6 7 6 6 5 4 7 8 4 5 10 10 7 6 5 4 5 5 5 6 7 8 9 10 11 11 11 10 9 10 12 14 16 18 19 20 21 23 25 27 27 25 23 22 22 23 24 25 26 28 29 29 28 26 25 24 24 25 26 26 26 26 25 26 26 28 31
7 8 8 6 5 1 4 4 5 6 3 2 4 6 4 5 5 1 2 4 5 7 7 6 4 5 6 5 4 8 11 10 7 6 6 6 6 6 6 7 7 8 8 7 8 8 7 6 6 8 12 13 15 16 17 19 20 21 22 22 22 22 22 22 23 24 25 27 28 28 28 27 26 25 25 24 24 25 25 25 24 25 26 26 26 28 30
8 9 8 6 5 1 2 3 3 3 0 3 4 3 2 4 2 2 2 4 5 6 7 6 4 5 7 9 11 11 11 10 8 6 6 7 6 6 7 7 7 7 5 4 5 4 2 2 4 7 10 12 13 14 15 17 18 18 18 19 20 21 22 23 23 24 24 25 26 25 24 23 23 24 24 24 24 25 24 24 24 25 26 26 26 28 29
8 8 8 7 6 1 2 4 4 2 3 3 1 2 2 1 2 2 3 4 4 5 7 7 6 8 10 14 15 13 11 10 9 7 7 7 6 6 7 6 6 6 4 4 5 5 5 3 3 6 9 11 12 13 14 15 16 16 15 16 18 19 21 22 22 22 22 22 22 22 22 22 22 23 24 23 24 25 24 24 24 25 26 26 26 28 29
7 8 8 8 5 4 7 6 4 3 3 3 5 6 5 3 5 5 4 3 3 5 7 8 9 11 12 13 13 11 11 10 8 7 7 7 6 6 6 6 7 7 5 5 6 7 7 6 3 5 9 10 10 11 11 9 10 12 12 13 14 16 18 19 20 19 19 20 20 20 21 23 23 24 24 24 24 24 24 23 23 25 26 26 27 27 28
5 9 8 3 2 4 6 5 3 3 6 8 9 9 7 5 6 5 5 5 5 6 8 9 10 11 10 11 11 10 10 9 7 6 5 5 5 5 5 6 7 6 5 4 5 6 8 9 7 2 5 8 8 8 7 5 5 6 8 9 11 13 14 16 17 17 17 18 19 20 21 22 23 23 23 24 23 23 23 23 23 25 26 26 26 27 27
4 7 6 7 10 9 6 6 6 9 11 11 11 12 10 8 6 5 5 7 7 6 7 8 9 8 8 8 8 8 7 6 5 4 4 4 4 3 3 4 4 3 3 4 5 6 7 9 10 8 5 5 7 7 6 4 4 5 7 8 9 11 12 13 15 16 15 16 17 19 19 20 21 22 22 22 22 22 24 24 24 26 27 26 26 26 27
7 9 10 10 12 13 11 9 9 10 11 11 11 11 10 9 8 7 7 7 7 5 5 6 7 7 6 6 6 5 5 4 3 2 2 1 2 2 1 2 2 2 4 5 6 7 8 8 9 9 9 8 8 7 5 3 3 4 6 8 9 10 11 12 13 15 15 15 16 17 18 19 19 20 20 21 21 22 24 25 25 26 26 26 26 26 26
7 7 8 9 12 13 13 12 12 12 13 11 9 9 9 9 9 8 8 7 5 4 3 4 6 6 4 4 5 3 2 2 1 1 1 1 2 2 2 3 3 3 4 5 6 8 9 9 9 9 9 9 8 6 4 3 3 3 5 7 8 9 9 10 11 12 13 14 14 15 17 18 18 19 20 21 22 23 24 24 24 25 25 25 26 25 25
9 9 10 12 15 17 15 14 12 12 12 12 11 10 11 11 10 9 8 7 4 2 2 2 5 5 4 4 5 3 1 2 2 2 2 3 2 3 4 5 5 5 5 4 5 7 8 9 10 10 10 10 8 7 7 5 4 4 5 6 7 8 8 8 9 10 11 11 12 12 14 15 17 18 19 21 22 22 23 24 23 24 25 25 26 26 26
9 11 12 13 14 16 16 14 11 9 10 12 13 12 12 14 13 11 9 8 4 0 2 2 2 3 4 5 5 3 2 2 3 3 3 3 3 5 6 7 7 7 6 6 6 8 9 9 10 11 11 11 10 9 8 7 6 6 6 6 7 7 7 7 7 8 8 9 10 11 12 13 15 16 17 19 20 20 22 24 25 26 25 24 26 27 27
9 10 10 9 10 11 11 10 11 13 13 13 14 14 13 14 15 12 10 9 5 2 3 2 1 2 2 3 3 3 3 4 4 5 4 3 4 7 7 8 8 9 9 8 8 8 9 9 10 10 10 10 10 9 8 7 6 6 6 7 7 7 6 6 6 6 6 7 7 9 10 11 12 14 15 19 21 22 22 22 24 26 28 28 29 29 27
11 11 10 9 9 10 12 13 15 15 14 13 15 15 13 13 15 14 11 10 6 3 4 3 2 2 2 2 3 4 5 5 5 6 7 6 6 7 8 8 9 10 10 10 10 10 9 9 9 10 10 10 10 9 9 8 6 6 6 5 6 6 6 5 5 4 3 3 3 4 6 7 9 10 12 15 19 21 23 24 25 26 29 31 33 34 32
15 15 13 11 11 14 16 16 16 16 14 14 15 16 14 13 14 15 13 11 7 3 5 4 3 3 3 4 5 6 6 6 6 7 9 10 9 9 8 9 10 10 11 12 11 11 10 10 10 11 11 11 11 10 9 9 8 8 6 5 6 7 7 6 6 5 4 3 2 1 2 3 5 6 8 10 11 12 16 19 22 25 27 29 32 34 36
15 14 12 11 13 16 16 16 17 17 16 15 15 16 15 13 13 14 13 10 7 2 3 5 4 3 5 6 6 7 7 7 8 9 10 11 11 10 10 10 10 10 11 12 12 12 12 12 12 12 12 13 12 11 10 10 10 10 10 9 8 8 7 6 6 6 5 4 3 2 1 2 2 3 5 6 7 7 9 12 15 19 22 26 29 33 36
14 13 13 14 16 17 15 14 16 17 16 15 14 15 15 14 14 15 13 9 6 3 2 4 4 5 7 7 7 8 8 8 9 10 10 10 10 10 11 11 10 10 11 12 13 12 12 12 12 12 13 12 11 11 10 10 10 11 11 10 10 9 9 7 7 6 6 6 5 4 4 3 3 3 4 5 6 7 8 9 11 14 17 20 23 25 29
14 13 13 15 17 18 16 16 16 16 14 14 15 15 15 13 13 13 12 8 5 3 3 5 6 7 8 9 9 10 10 9 9 10 10 10 11 11 11 12 11 11 13 13 13 12 12 12 13 13 14 13 12 11 10 10 10 9 9 8 7 8 8 8 6 6 7 6 6 6 6 5 5 5 4 5 6 6 7 8 10 11 14 16 16 18 22
14 13 14 16 18 19 17 17 17 16 15 15 15 15 13 11 11 12 12 9 6 4 4 6 8 8 8 8 9 9 10 10 9 9 9 10 10 11 12 13 13 13 14 14 13 12 12 13 14 14 14 14 13 12 11 10 9 8 8 7 6 6 7 7 7 7 7 7 7 7 6 6 5 5 5 5 6 7 7 9 10 11 13 14 15 18 22
14 14 16 18 20 20 18 18 18 17 17 16 15 15 14 12 11 12 13 10 7 5 4 6 8 9 8 8 9 8 8 9 9 10 10 10 11 11 11 12 14 15 15 15 14 13 13 13 14 14 14 14 13 12 11 10 10 9 8 8 8 8 8 8 8 8 7 7 7 6 5 5 5 5 5 6 7 7 8 9 10 11 13 14 15 17 18
13 13 15 17 19 19 20 19 18 18 17 17 16 16 14 12 11 12 12 8 5 4 4 5 6 9 9 9 9 10 10 10 11 11 12 12 13 12 11 12 12 12 13 14 14 14 13 14 14 14 14 13 12 13 12 11 10 10 9 9 10 11 10 8 8 8 7 7 7 6 5 5 6 6 6 7 7 8 9 10 10 11 11 11 13 15 17
16 17 18 19 18 19 20 18 16 16 16 16 17 16 14 12 12 12 10 7 5 4 5 5 7 8 9 9 10 12 12 12 13 14 14 15 15 15 15 14 12 11 12 14 14 14 13 13 14 14 13 12 12 13 13 13 11 10 9 9 9 11 11 9 7 7 8 7 6 6 6 5 6 6 7 7 8 9 10 10 10 10 11 11 12 14 16
21 20 20 19 18 18 18 16 15 16 17 16 16 15 13 11 11 12 10 7 6 6 6 6 7 8 9 10 11 12 13 13 14 14 15 15 15 16 16 16 16 15 15 15 15 15 14 13 13 13 13 12 12 12 13 13 12 11 10 9 8 9 11 11 8 7 8 7 6 6 6 6 6 7 7 7 8 9 9 10 9 9 10 11 12 14 15
18 16 16 16 16 17 17 16 16 18 17 16 15 12 9 8 10 11 9 7 7 6 6 7 8 9 10 11 12 12 13 14 14 14 14 15 15 16 17 17 18 18 18 17 17 17 16 15 14 13 13 12 12 11 12 12 12 12 11 10 9 9 10 11 10 8 7 7 7 7 7 7 6 7 7 7 7 8 8 8 8 9 10 10 11 13 14
15 13 14 14 14 16 17 17 16 15 13 12 11 9 7 7 10 11 9 8 8 8 7 9 11 11 11 12 12 11 12 12 11 12 13 15 16 17 18 18 18 19 19 19 19 19 18 16 14 13 14 13 13 12 12 11 12 12 12 11 11 11 11 11 11 10 9 8 8 7 7 7 7 7 8 8 8 7 8 7 7 7 7 7 9 11 11
10 12 12 10 10 12 13 13 12 11 10 9 9 9 9 10 11 10 8 8 10 11 10 11 13 14 13 12 11 11 13 12 12 13 16 17 18 18 18 18 19 19 20 20 20 19 18 17 16 14 15 16 16 15 14 13 12 12 12 11 11 11 11 11 11 11 10 10 9 9 9 9 8 8 8 8 8 8 7 7 6 6 5 5 7 9 9
4 6 6 6 7 8 9 9 10 10 9 7 6 7 10 11 10 9 8 9 13 15 15 15 15 14 13 13 12 12 14 15 16 18 19 19 18 19 19 19 19 18 18 18 19 18 16 17 17 16 15 17 18 17 17 15 13 12 12 11 10 11 11 11 11 11 11 11 10 10 10 9 8 8 8 8 7 8 8 7 6 6 4 4 5 6 5
1 1 2 5 8 9 8 7 7 6 6 6 6 8 9 7 7 8 9 11 14 16 17 17 15 13 13 16 17 17 17 17 18 20 20 20 20 21 21 19 18 17 14 14 16 17 16 17 18 17 16 17 18 17 18 18 14 12 12 12 11 11 11 12 12 12 12 12 12 11 11 10 9 9 8 8 7 7 7 7 7 6 6 5 6 6 4
7 6 5 6 7 7 7 7 6 5 5 6 6 6 5 8 11 12 10 11 15 18 17 16 17 18 19 19 19 20 20 20 19 20 21 21 22 23 21 19 18 17 14 13 15 17 18 18 18 18 17 17 16 17 20 20 17 15 15 15 14 13 14 14 14 14 14 14 13 13 12 11 11 10 9 9 9 8 8 7 7 7 6 5 5 6 6
16 15 13 12 10 9 11 12 9 6 6 6 5 7 13 18 19 17 15 16 18 20 19 17 17 19 21 19 18 18 20 20 20 21 21 22 23 24 23 22 21 19 17 17 19 20 20 20 19 19 19 18 16 16 18 20 18 16 16 16 15 15 16 16 16 16 16 15 16 15 14 13 13 12 11 10 10 9 9 9 8 7 6 5 4 5 6
18 18 18 17 15 13 13 13 12 14 17 15 10 12 19 22 20 18 18 18 18 19 21 20 17 14 15 17 18 18 19 20 20 20 20 20 21 22 22 21 22 21 19 19 21 23 23 22 20 19 19 19 17 16 17 18 17 17 16 16 16 15 15 15 15 16 16 16 16 16 17 17 16 15 15 14 12 11 11 10 10 9 8 6 4 5 6
19 18 19 18 15 13 13 14 16 21 25 23 19 21 27 27 22 19 19 20 21 21 23 24 20 16 17 20 21 21 21 22 23 22 21 20 19 18 15 15 19 20 20 20 21 22 23 24 22 20 19 19 19 19 18 18 18 17 17 17 16 16 16 15 15 16 17 17 16 16 17 17 17 18 18 18 17 16 14 13 12 11 10 8 7 7 7
21 21 20 18 15 14 15 18 20 22 24 24 25 29 32 31 28 26 26 27 26 25 25 25 23 19 20 23 24 23 23 23 24 25 25 23 21 17 13 14 18 20 20 20 22 22 22 23 24 23 21 19 19 21 21 20 20 19 19 18 18 18 18 18 17 17 17 17 17 17 17 17 17 18 19 19 20 20 19 17 16 15 13 10 9 9 8
21 20 18 16 16 17 20 21 21 21 21 24 28 31 32 32 31 30 29 28 27 25 25 26 25 21 19 20 21 21 21 21 22 23 24 25 25 23 19 17 18 21 21 21 22 22 22 22 23 24 24 23 22 22 22 21 21 21 20 20 20 20 20 21 20 19 19 19 18 17 17 17 18 18 18 18 20 21 20 20 20 19 17 15 13 13 13
20 18 16 15 17 19 21 22 20 17 17 21 26 28 28 28 29 29 27 27 26 25 24 24 23 20 19 19 19 18 18 18 18 19 18 18 21 23 21 19 19 20 21 22 22 22 23 24 24 25 26 26 24 23 23 22 21 21 21 20 21 21 21 21 21 21 21 21 20 19 19 19 19 18 18 18 19 20 21 21 22 21 19 19 20 19 20
18 19 20 20 20 19 18 18 17 16 19 22 25 25 24 23 25 26 26 25 25 24 24 23 21 19 19 20 20 20 20 20 20 19 15 13 13 16 19 19 19 19 20 21 22 22 23 26 27 27 26 25 24 23 22 22 21 21 21 20 20 21 20 20 20 20 21 21 20 20 20 20 20 19 18 18 19 20 21 23 26 26 25 26 26 25 24
21 22 23 22 19 18 18 18 20 22 24 24 21 20 21 23 24 23 23 22 22 22 23 23 21 20 19 19 19 19 20 21 21 21 19 16 15 16 17 19 20 20 21 22 22 21 23 25 27 27 25 24 22 22 21 21 21 21 21 21 21 21 20 20 20 20 20 20 20 20 19 19 19 19 19 19 19 20 20 23 28 30 29 30 30 29 27
22 22 22 20 18 18 20 22 23 23 22 17 13 14 18 22 22 21 21 21 22 22 22 22 22 22 21 20 18 17 16 16 17 18 18 17 17 17 18 18 18 18 19 21 22 24 25 26 27 26 25 23 22 21 20 20 20 21 21 22 21 21 20 20 20 20 19 19 19 19 18 18 17 18 17 18 19 20 20 23 26 29 30 32 33 33 32
21 20 20 20 20 21 22 22 21 18 16 13 12 13 15 17 19 19 19 19 20 21 21 21 21 21 22 22 21 19 17 15 14 14 15 16 15 16 18 19 18 17 17 18 20 24 26 27 27 25 23 21 21 20 20 20 20 20 21 21 21 21 21 20 19 19 19 19 19 18 18 18 17 17 17 17 18 18 19 21 24 27 30 32 33 34 34
20 19 19 20 21 21 20 18 16 13 13 14 14 13 12 13 16 17 17 17 18 19 19 20 20 20 20 21 21 20 20 18 16 14 15 16 16 16 16 18 20 19 18 16 17 20 23 25 25 22 21 20 20 19 19 20 20 20 20 20 20 20 20 20 20 19 19 19 19 19 18 18 18 18 17 17 17 18 18 19 21 23 25 28 30 32 33
19 19 18 18 19 19 18 16 14 13 14 14 14 13 12 13 14 15 15 15 16 17 17 18 19 19 19 19 19 19 19 18 17 16 16 16 17 17 17 17 18 19 18 17 16 16 18 21 21 20 19 18 19 19 19 19 19 19 20 19 19 18 18 18 19 20 19 19 19 19 18 18 18 18 18 18 18 19 19 19 20 21 22 23 25 28 30
18 17 16 16 16 17 17 17 16 15 15 14 13 13 13 14 14 14 15 15 15 15 16 17 17 17 17 17 17 17 17 17 17 17 16 16 16 17 17 16 17 17 17 16 16 16 16 18 19 19 18 17 18 18 19 19 18 18 18 18 18 18 18 18 18 18 19 19 18 18 18 18 18 18 18 19 19 19 20 20 20 21 21 21 21 22 24
18 18 17 15 15 15 16 17 17 17 16 15 15 14 14 13 14 15 16 16 16 15 15 15 16 17 17 16 16 16 16 16 16 16 16 16 16 16 16 16 16 16 16 15 15 15 15 16 17 18 18 18 17 17 18 18 17 17 17 17 16 17 18 18 18 17 17 17 17 17 17 17 17 16 17 18 18 19 20 20 20 20 20 20 20 20 20
Wind_Direction
326 343 359 6 347 241 191 194 194 192 197 208 219 226 226 224 233 242 215 212 227 230 221 221 226 242 264 275 280 287 300 307 306 305 299 299 306 290 208 192 190 193 197 199 203 206 208 209 209 208 209 208 207 206 204 202 202 201 199 198 198 199 199 201 202 202 201 201 202 203 204 205 206 207 209 210 211 211 211 211 212 212 210 208 207 207 207
237 232 293 329 285 232 222 215 206 199 203 212 220 227 231 237 246 258 260 249 243 240 246 258 263 268 274 282 288 290 292 294 295 296 293 293 300 306 293 207 188 193 194 196 202 205 208 211 211 210 211 209 207 206 204 202 202 201 199 199 199 200 201 202 201 198 197 198 199 200 202 203 204 205 207 208 209 209 210 210 210 210 210 209 208 207 207
215 205 217 231 253 256 249 238 226 217 214 214 217 222 226 234 243 251 258 262 256 244 254 272 280 286 288 288 290 291 292 293 295 294 292 293 296 299 297 261 194 191 191 192 198 204 207 210 210 210 211 209 208 207 205 203 202 200 199 200 201 202 203 202 198 194 194 195 196 198 200 202 202 202 204 206 207 208 209 209 210 210 209 209 210 210 209
206 181 192 218 251 269 259 245 230 223 218 216 217 217 218 222 230 240 247 252 252 248 254 260 262 266 269 269 274 279 281 284 287 289 291 293 292 290 287 265 210 200 203 199 200 207 211 212 211 210 210 209 208 208 207 204 201 199 200 201 201 203 203 200 195 193 192 193 195 198 200 200 200 200 201 204 207 207 208 209 209 209 209 209 211 211 211
200 158 179 224 249 256 253 242 227 220 217 218 219 217 219 221 222 231 240 246 253 252 251 255 255 256 259 261 265 270 272 274 277 280 282 283 283 284 283 272 242 231 232 217 210 213 215 215 216 213 210 208 209 209 206 202 199 199 201 202 201 200 200 198 195 193 193 194 196 198 198 197 197 198 199 203 206 207 208 208 209 210 211 212 215 214 213
212 156 150 238 233 231 235 227 217 215 212 216 221 221 219 216 217 233 247 255 260 253 246 253 262 266 270 273 274 275 273 272 275 277 279 281 283 283 282 281 281 274 255 237 231 229 226 225 224 219 214 212 212 208 203 199 199 200 201 202 200 197 196 196 194 193 194 196 197 198 196 194 196 198 201 205 208 208 209 209 211 215 215 216 220 220 218
243 228 207 223 226 215 120 76 103 195 206 215 222 227 230 227 228 238 247 254 259 260 265 271 275 279 282 283 282 280 277 275 276 279 280 279 278 278 277 279 284 284 266 255 251 245 240 237 231 225 220 217 213 207 202 200 199 199 199 200 200 197 196 196 194 194 196 198 198 198 196 194 197 200 204 207 209 210 211 211 213 217 218 219 223 223 221
247 248 220 214 202 88 112 121 120 146 170 185 209 228 231 231 234 237 245 259 268 273 280 283 284 289 291 289 285 279 275 273 271 270 274 277 278 281 287 291 294 296 287 277 272 265 256 247 237 229 224 218 212 207 204 201 200 198 197 199 201 200 197 196 196 196 197 198 198 198 197 197 200 203 206 209 209 209 212 214 215 217 219 222 224 223 222
236 240 232 233 268 277 226 191 148 148 155 149 205 242 216 178 140 171 238 259 272 279 287 295 305 308 300 286 274 269 267 263 258 259 267 276 285 292 302 306 301 296 288 279 275 268 258 249 242 234 223 215 210 207 203 200 199 196 195 197 200 201 200 199 198 198 198 198 198 199 199 200 203 206 208 210 209 208 210 213 215 216 217 221 224 224 223
229 241 243 240 249 257 231 176 147 132 117 101 61 284 203 136 114 137 230 251 274 283 294 313 323 315 287 264 262 280 288 278 265 264 270 276 284 293 301 303 298 295 291 282 273 265 257 250 241 230 220 210 205 204 203 199 197 196 198 199 200 201 202 202 199 198 198 199 198 198 200 203 206 207 209 209 208 208 210 212 215 216 215 217 221 223 225
224 230 239 232 232 244 119 142 146 139 135 126 136 246 224 140 113 126 241 259 283 291 304 324 323 290 258 247 253 357 352 342 332 321 313 307 306 306 308 309 306 306 305 294 277 260 248 244 233 218 212 206 201 201 201 200 198 200 204 205 204 204 205 203 200 198 198 198 198 199 202 205 206 206 208 210 209 210 212 215 217 218 218 219 221 224 228
222 229 237 234 235 221 84 120 137 124 121 166 204 230 207 129 114 102 267 277 295 300 305 312 286 251 252 268 323 355 347 335 330 328 324 324 323 315 312 320 321 313 310 301 280 258 239 233 224 206 200 200 200 198 197 200 203 205 208 209 207 206 204 202 200 198 198 199 201 202 203 204 205 206 207 209 210 211 214 216 218 219 220 221 222 225 228
222 229 233 238 249 231 144 200 176 108 81 237 226 232 120 126 171 221 240 265 292 297 295 294 268 265 292 304 312 322 323 317 317 326 327 324 322 319 324 332 327 315 318 324 306 299 302 272 232 201 193 195 196 193 193 200 206 209 209 206 203 202 201 201 201 200 200 202 203 203 204 203 204 207 209 210 211 212 214 216 217 218 218 219 223 227 229
219 221 228 240 241 135 64 283 271 263 250 239 256 328 317 244 262 269 249 261 283 285 285 286 279 283 293 294 295 303 309 310 314 320 323 323 324 332 339 338 329 321 334 350 342 343 345 310 244 199 191 192 191 191 196 203 209 211 210 205 202 199 197 199 202 201 201 202 201 202 203 203 204 208 210 211 212 213 215 216 216 217 217 218 223 228 231
223 224 222 225 217 82 37 337 279 230 254 312 345 324 299 307 323 312 294 298 313 301 293 290 286 286 285 283 288 295 295 296 302 311 318 320 321 331 340 343 343 342 343 352 356 359 359 344 304 207 191 188 186 186 187 192 200 203 203 200 199 198 197 199 200 201 200 199 199 200 202 202 204 207 208 211 213 213 215 216 217 219 221 222 225 229 232
221 217 205 209 310 4 15 348 308 317 331 337 339 327 316 319 322 317 312 315 319 312 303 295 291 291 287 282 284 286 283 283 287 291 300 303 304 317 335 343 346 345 348 0 5 9 14 8 359 355 173 172 166 156 140 126 146 173 183 187 191 195 198 199 199 201 202 200 200 202 203 204 207 209 210 212 213 213 215 217 221 226 227 227 228 230 232
272 249 260 326 323 310 321 340 333 330 330 331 332 328 318 311 316 321 309 306 312 310 301 297 295 292 288 285 282 278 278 282 284 286 293 296 294 300 337 352 352 0 27 36 35 33 32 25 20 26 60 105 109 96 86 96 134 168 180 184 188 193 195 197 199 201 202 202 203 206 206 206 208 210 211 212 212 214 218 221 225 230 232 231 231 231 230
289 275 273 286 288 287 298 313 318 318 319 322 325 321 313 314 322 317 301 301 308 304 296 304 307 299 290 288 282 274 274 278 276 277 280 292 301 306 11 24 8 32 58 58 59 56 51 46 42 41 48 64 73 68 64 84 118 162 185 187 189 193 194 195 197 198 201 204 206 209 211 212 213 214 214 214 215 217 221 224 226 229 232 233 233 232 231
274 266 266 278 285 291 302 308 307 305 304 305 308 306 304 309 312 306 299 295 292 298 317 326 318 313 306 298 294 295 311 316 319 337 30 59 34 16 54 56 39 45 58 64 68 66 61 60 60 61 62 66 70 73 75 84 100 135 168 178 180 181 181 183 187 193 199 204 206 210 212 214 217 220 222 224 225 225 227 228 230 231 232 234 235 233 233
255 259 273 287 291 292 292 288 285 289 292 296 302 306 306 305 297 288 286 281 272 292 5 348 328 334 352 340 323 325 0 339 335 11 50 65 60 53 64 65 61 62 63 66 73 72 69 68 69 69 68 66 66 69 73 80 99 118 137 152 158 163 167 170 176 184 191 196 203 210 213 216 220 224 226 229 231 232 231 231 232 235 235 234 235 236 236
262 264 267 272 277 278 273 268 271 289 303 308 312 313 312 307 296 280 272 271 261 198 63 39 351 354 10 359 340 345 29 12 352 20 53 74 75 67 66 68 70 74 72 70 73 74 72 70 69 69 67 63 61 62 65 73 91 108 123 131 135 146 157 163 168 176 183 190 200 211 218 222 226 229 230 233 236 238 237 235 236 240 242 240 239 240 241
259 257 256 259 266 269 272 284 302 312 316 316 313 311 313 313 305 293 280 269 247 148 91 68 52 33 20 13 11 26 38 24 13 25 44 66 79 79 79 79 78 80 81 79 77 74 71 70 71 73 74 69 64 63 64 70 84 102 117 124 127 135 142 144 148 163 177 184 194 209 219 223 228 233 234 235 237 242 244 243 242 244 246 248 248 249 251
261 266 274 283 285 279 282 293 300 302 304 305 301 300 305 309 305 299 291 275 251 159 108 104 120 119 106 78 65 60 53 41 33 35 39 44 57 69 79 85 86 85 86 87 84 79 76 74 74 77 78 75 71 71 70 72 80 93 104 111 113 113 110 101 100 116 144 161 180 208 225 233 240 246 247 242 241 246 250 252 252 250 249 249 249 251 254
267 272 278 283 282 275 276 283 287 289 292 294 291 291 295 298 296 294 290 278 261 199 121 120 135 138 122 100 83 73 63 52 47 49 48 47 50 56 63 71 73 71 71 77 80 80 81 79 78 79 79 75 70 69 68 69 75 79 77 77 82 84 82 79 73 72 85 96 98 180 231 251 257 261 267 263 256 258 262 264 264 264 262 260 258 256 256
264 269 271 271 271 271 276 281 280 277 278 280 281 283 285 285 286 287 285 280 274 249 124 121 127 118 100 89 84 84 76 64 60 63 60 54 53 54 56 60 62 60 61 65 70 74 79 79 78 78 77 72 68 64 59 56 57 58 55 54 58 57 53 57 56 50 55 62 52 45 39 341 301 279 280 283 282 285 286 283 281 278 274 270 267 265 263
256 259 260 263 266 268 271 273 270 268 270 272 273 274 275 278 280 278 274 272 276 267 138 125 112 95 90 87 84 85 85 78 71 70 69 65 60 58 60 64 67 67 66 66 66 69 75 77 75 70 65 61 59 60 60 57 55 55 55 53 53 47 37 36 39 36 34 35 29 26 24 7 344 327 315 311 308 304 300 297 293 287 281 278 275 273 272
246 242 248 259 264 263 261 261 263 265 267 266 266 270 273 276 276 269 259 250 248 228 159 141 125 102 93 91 86 82 83 82 75 71 70 70 69 67 68 70 72 73 73 71 68 67 69 72 70 63 55 50 47 50 59 64 63 62 60 58 62 60 47 38 38 38 33 29 26 21 15 8 359 348 337 327 317 308 301 299 297 292 291 294 295 293 290
242 238 244 254 260 263 264 264 264 263 262 261 265 269 271 270 264 255 243 226 204 185 157 135 123 109 96 94 92 86 83 80 76 71 67 65 67 71 73 73 72 70 69 67 64 61 62 65 63 58 50 46 44 45 51 60 63 59 52 47 52 58 51 41 41 44 41 35 31 24 13 1 353 347 342 336 326 315 306 301 299 300 302 305 306 303 298
241 243 249 253 257 261 264 263 260 259 259 259 261 262 258 251 244 239 233 218 186 158 142 121 111 106 101 96 94 90 84 80 75 72 68 62 60 61 66 72 73 69 63 59 56 54 55 57 56 52 47 43 43 45 48 53 57 54 48 43 40 38 36 34 35 40 43 37 31 25 15 4 355 351 349 344 335 326 318 312 311 312 312 314 317 315 308
232 234 240 246 250 252 253 252 251 252 254 253 252 249 239 228 226 229 225 215 193 159 143 124 111 107 104 99 95 92 89 85 81 77 73 68 62 59 60 67 72 68 60 55 51 49 50 50 49 46 42 39 40 42 43 45 49 50 48 46 43 38 35 36 37 38 38 35 29 22 16 10 6 2 357 350 342 332 324 322 325 327 326 328 331 328 321
244 238 237 240 241 241 244 245 244 247 248 244 241 236 220 205 214 225 217 201 191 171 146 127 116 111 108 105 102 96 91 88 85 81 75 70 66 65 65 66 68 66 59 54 51 48 48 48 46 41 39 39 41 42 41 41 43 43 41 43 46 42 37 37 44 46 41 34 29 22 16 11 10 8 360 351 344 338 332 332 338 343 344 343 340 334 328
255 252 247 246 244 240 238 238 239 241 238 231 228 224 206 189 203 219 211 185 165 155 139 123 118 117 114 112 109 104 98 93 86 80 75 71 67 67 68 68 68 66 61 55 51 47 45 45 43 39 37 39 43 44 42 41 41 40 39 40 44 41 35 31 36 44 42 37 32 25 15 6 6 7 359 348 341 337 334 338 346 351 352 350 343 338 334
249 250 244 238 234 231 230 229 230 230 225 218 215 208 190 184 204 212 201 170 145 139 134 125 121 119 115 111 110 107 104 99 90 80 75 71 68 68 68 67 66 64 60 55 50 47 43 40 36 34 35 38 42 45 44 44 43 40 38 38 40 40 36 31 29 31 35 33 28 23 15 5 359 356 349 341 337 335 335 342 351 353 355 357 353 346 344
229 230 235 230 219 214 214 213 214 212 205 198 193 180 170 197 212 205 187 159 136 130 133 131 125 117 107 101 98 96 95 94 90 83 76 70 68 68 68 67 65 62 58 53 49 46 43 37 32 34 37 38 41 43 42 43 44 42 39 40 41 38 35 32 31 32 32 27 20 16 11 3 355 349 342 335 333 334 335 341 351 356 0 4 0 357 2
216 217 226 223 204 196 195 192 188 183 176 172 171 170 182 202 205 191 172 152 137 134 136 130 119 108 99 91 85 83 84 83 83 82 76 70 67 68 67 67 65 61 56 49 44 42 40 34 29 33 39 41 42 41 38 38 42 41 38 39 42 39 35 34 33 32 28 22 18 17 12 2 353 348 342 334 333 338 339 337 341 350 1 9 7 9 20
212 212 204 179 167 174 180 173 168 166 161 154 157 177 194 198 186 167 155 151 146 141 134 122 110 102 97 93 87 83 81 82 83 81 77 73 71 69 66 61 57 55 52 43 34 31 32 27 23 28 39 44 43 41 36 36 41 44 42 41 42 41 39 37 34 32 29 22 18 16 10 359 351 351 348 340 337 341 345 345 342 342 355 14 10 7 17
295 244 161 140 148 160 163 151 142 144 139 135 156 186 201 192 155 134 136 144 143 136 125 115 109 104 98 95 92 86 80 78 78 79 79 78 75 69 63 56 49 47 46 36 27 26 28 25 22 28 38 44 43 40 35 36 42 49 49 46 44 42 41 39 36 34 32 26 21 18 12 4 358 355 353 348 343 344 351 358 360 3 15 21 5 354 355
45 55 67 91 113 128 121 101 98 118 135 137 151 164 145 100 87 86 90 102 112 112 108 105 107 106 101 95 91 85 79 75 74 74 75 75 73 68 63 56 51 49 45 36 30 30 30 28 29 31 35 38 40 37 34 36 43 51 51 48 46 44 42 41 40 38 35 30 28 27 23 15 7 2 0 358 353 349 355 3 7 16 27 27 4 349 344
44 45 44 50 58 69 73 68 63 73 95 104 117 116 101 90 83 77 71 74 87 96 97 92 93 97 96 92 86 79 74 72 73 74 73 72 71 70 67 60 54 50 45 41 38 35 32 32 36 37 35 34 36 36 34 37 44 51 51 48 47 43 39 38 40 40 38 35 33 32 32 28 20 12 10 8 2 358 1 5 7 14 27 41 42 18 1
43 41 41 45 46 51 62 63 53 52 57 58 66 88 91 86 81 77 71 67 71 83 88 84 78 80 85 86 83 78 73 70 70 71 71 68 68 71 69 60 50 44 42 43 43 40 36 36 39 40 37 36 35 36 36 39 45 50 49 47 48 47 43 41 41 39 37 35 33 30 30 32 30 27 24 21 17 14 11 9 10 15 20 29 44 38 20
44 44 46 48 44 46 59 67 62 57 53 49 52 68 76 77 77 77 73 67 62 64 71 74 72 72 78 81 80 77 73 69 66 64 64 64 65 68 66 54 43 39 42 46 47 44 41 39 37 36 35 35 36 39 43 45 47 48 47 45 46 46 44 43 43 41 39 38 37 34 30 29 29 29 29 28 27 26 23 20 19 19 21 24 30 33 32
38 39 42 46 44 44 54 61 61 57 50 43 46 57 64 67 69 69 68 65 61 58 61 64 65 65 72 78 79 77 74 71 68 65 62 61 62 64 63 52 43 41 45 49 50 48 45 42 36 33 34 35 38 43 47 49 49 49 48 47 46 45 44 42 41 41 40 41 41 40 35 30 28 27 27 25 24 25 27 31 31 27 24 26 30 33 35
37 35 35 39 40 41 47 52 56 55 48 42 45 53 59 63 65 67 66 65 62 59 58 58 55 51 55 66 73 74 73 72 71 70 67 63 61 60 60 55 47 44 47 51 51 49 47 42 37 34 35 37 40 44 48 49 49 48 48 48 47 47 47 45 43 42 42 41 40 37 34 33 33 33 31 27 23 21 24 32 38 36 32 33 38 41 42
37 37 37 39 40 43 47 50 52 55 53 47 47 52 58 63 66 68 68 66 63 61 59 58 53 49 49 54 59 62 63 63 65 67 69 66 60 55 52 52 50 48 49 52 53 50 45 39 35 34 36 39 42 45 47 47 47 46 47 47 47 47 47 47 45 44 44 43 41 40 39 38 38 38 35 33 31 27 25 30 36 38 37 37 39 42 45
35 37 38 40 41 44 48 50 51 57 62 60 53 49 51 59 64 66 67 67 64 60 58 56 51 49 52 57 60 61 59 58 57 59 62 65 61 52 49 50 51 50 50 52 53 48 42 38 38 38 38 39 42 45 46 46 45 45 45 46 46 46 45 45 44 44 44 43 42 42 42 42 42 41 39 39 40 37 35 37 40 42 43 42 40 39 40
37 39 40 39 38 41 48 53 55 57 60 60 55 47 46 52 56 55 55 60 62 60 57 54 48 45 48 55 61 63 62 60 57 56 58 64 65 59 54 54 54 53 52 52 50 44 40 40 41 41 39 38 41 44 45 44 44 44 44 44 44 44 44 43 42 42 42 42 42 42 42 44 44 44 42 43 44 42 40 41 44 46 47 46 45 43 43
40 43 43 39 35 38 44 50 52 52 52 53 50 42 42 47 50 48 49 55 59 59 57 56 52 48 48 50 52 55 61 64 60 56 56 61 64 59 54 52 52 53 55 54 49 44 43 44 44 42 39 40 42 43 42 42 43 43 43 43 42 41 41 40 40 39 39 38 39 40 42 43 43 43 42 44 45 43 41 41 43 45 46 47 47 46 46
40 42 40 37 36 37 41 45 48 47 45 46 47 43 41 46 52 52 52 55 58 58 57 56 55 52 52 52 51 51 55 60 61 55 52 54 58 57 51 47 46 48 51 52 48 43 43 45 44 42 40 42 43 42 42 41 41 41 42 43 42 40 39 37 36 36 37 36 35 36 37 38 38 38 39 40 42 43 44 44 44 44 46 48 48 47 47
36 37 36 36 35 36 38 40 42 41 39 40 42 42 42 48 54 53 51 53 57 58 57 55 53 52 52 53 54 53 53 57 60 58 54 52 54 53 50 46 44 44 45 47 44 40 38 39 39 39 41 43 44 43 42 42 42 41 41 41 41 41 40 38 37 36 36 36 35 34 34 34 34 33 34 36 38 39 41 43 43 42 43 45 45 45 46
31 33 36 37 38 39 41 42 41 38 37 39 42 43 47 52 53 51 49 54 60 61 59 56 54 51 51 52 53 53 53 55 56 56 54 53 52 50 47 46 44 43 43 43 42 39 37 35 34 35 38 43 44 43 43 43 44 43 41 40 39 38 37 37 38 39 38 37 36 35 33 33 33 32 33 34 34 35 37 40 41 40 40 41 42 43 44
33 35 37 40 41 42 44 44 42 38 36 38 41 44 51 57 58 53 49 52 57 61 61 58 55 52 51 52 52 51 50 50 50 49 48 48 47 45 44 43 42 41 41 41 39 37 36 36 35 34 35 38 41 42 42 42 43 43 42 40 39 37 34 34 36 38 37 37 36 35 33 31 31 31 32 32 33 34 35 36 37 38 38 39 40 41 42
36 35 35 37 41 42 42 42 41 39 37 38 39 41 46 54 58 55 50 49 52 57 59 59 56 51 49 48 49 49 48 47 47 45 43 42 41 39 38 37 36 36 36 36 36 35 35 35 35 36 36 36 38 39 39 39 40 40 38 37 36 36 34 33 32 33 34 34 34 32 31 29 28 29 31 32 32 33 35 35 36 37 38 38 38 39 40